[[{"header":{"parameterUnit":"m.s-1","parameterCategory":2,"la1":30.2991,"la2":30.254,"lo1":-89.0895,"lo2":-89.0444,"dy":0.0017,"dx":0.0017,"nx":28,"ny":28,"refTime":"2024-04-24T09:00:00:Z","depth":"0","parameterNumber":2,"parameterNumberName":"U-component_of_CURRENTS"},"data":[0,0,0,0,0,0,0,0,0,0,0,0,0,0,0,0,0,0,0,0,0,0,0,0,0,0,0,0,0,0,0,0,0,0,0,0,0,0,0,0,0,0,0,0,0,0,0,0,0,0,0,0,0,0,0,0,0,0,0.1488,0.1489,0,0.1524,0.1524,0.1524,0.1529,0.1528,0.1528,0.1528,0.1569,0.157,0.1572,0,0,0,0,0,0,0,0,0,0,0,0,0,0.144,0.144,0.1488,0.1489,0.1489,0.1523,0.1524,0.1524,0.1529,0.1528,0.1528,0.1528,0.1568,0.157,0.1572,0,0,0,0,0,0,0,0,0,0,0,0,0,0.1466,0.1441,0.1488,0.1496,0.1497,0.1523,0.1524,0.1524,0.1529,0.1528,0.1528,0.1527,0.1568,0.157,0.1572,0.1593,0,0,0.1578,0.1579,0,0,0,0,0,0,0,0,0.1464,0.1468,0.1494,0.1496,0.1497,0.1522,0.1522,0.1548,0.1529,0.1516,0.1528,0.1527,0.1554,0.1557,0.1564,0.1595,0.1597,0.1578,0.158,0.158,0.1581,0,0,0,0,0,0,0,0.1463,0.1466,0.1502,0.1495,0.1496,0.1503,0.1506,0.1527,0.1537,0.1517,0.1518,0.1523,0.1555,0.1562,0.1565,0.1598,0.1578,0.158,0.1581,0.1582,0.17,0.1702,0,0,0,0,0,0,0.1459,0.1465,0.1501,0.1503,0.148,0.1504,0.1507,0.1514,0.1537,0.154,0.1523,0.1523,0.1559,0.1563,0.1567,0.1617,0.158,0.1582,0.1584,0.1698,0.1701,0.1703,0,0,0,0,0,0,0.1458,0.1462,0.1499,0.1485,0.149,0.1505,0.1512,0.1515,0.152,0.1541,0.1544,0.1526,0.1559,0.1564,0.1599,0.1617,0.1583,0.1585,0.1696,0.1699,0.1702,0.1702,0,0,0,0,0,0,0.1456,0.1462,0.1463,0.1485,0.1491,0.1525,0.1513,0.1516,0.1524,0.1524,0.1545,0.1548,0.1559,0.1596,0.1601,0.1619,0.1587,0.1694,0.1697,0.1701,0.1699,0.1704,0.1708,0,0,0,0,0,0.1455,0.1466,0.1463,0.1467,0.1493,0.1525,0.153,0.1538,0.1525,0.1538,0.1554,0.1547,0.1623,0.1599,0.1605,0.1624,0.1692,0.1696,0.1701,0.1697,0.1703,0.1708,0,0,0,0,0,0,0.145,0.1469,0.1465,0.1482,0.1504,0.1527,0.1542,0.1538,0.1559,0.1555,0.1566,0.1573,0.1614,0.1625,0.1599,0.1673,0.1659,0.1664,0.1655,0.166,0.1665,0.1694,0.1588,0,0,0,0,0,0.1448,0.1462,0.148,0.1497,0.1508,0.152,0.1531,0.1534,0.1555,0.1562,0.1578,0.1603,0.1637,0.1651,0.1683,0.1717,0.1813,0.1738,0.1742,0.1746,0.1777,0.1964,0.1989,0.1717,0.1717,0.1717,0,0,0.1452,0.1464,0.1472,0.1496,0.1514,0.1534,0.1527,0.1547,0.1561,0.1565,0.1595,0.1618,0.1652,0.1696,0.1715,0.1704,0.1872,0.1751,0.1753,0.1784,0.1972,0.1999,0.2023,0.172,0.1719,0.1719,0,0,0.1477,0.1479,0.15,0.1516,0.1538,0.1545,0.1549,0.157,0.158,0.161,0.1623,0.1661,0.17,0.1735,0.1755,0.1807,0.1892,0.1815,0.1856,0.2036,0.2061,0.2084,0.223,0.2266,0.1813,0.1813,0.1813,0,0.1479,0.15,0.1514,0.1538,0.1546,0.1549,0.1567,0.1585,0.1613,0.164,0.1623,0.1731,0.1725,0.1815,0.1818,0.1816,0.194,0.1821,0.2045,0.2069,0.2093,0.2238,0.2278,0.1814,0.1814,0.1814,0.1814,0,0.1518,0.153,0.1548,0.1571,0.1587,0.1602,0.1621,0.1641,0.1643,0.1671,0.1758,0.1786,0.1869,0.1853,0.1839,0.1995,0.2035,0.2031,0.203,0.2121,0.2267,0.2308,0.1815,0.1814,0.1814,0.1814,0,0,0.1534,0.1564,0.1569,0.1582,0.1595,0.1618,0.1644,0.1687,0.1756,0.1774,0.1893,0.1901,0.1953,0.1984,0.1997,0.2109,0.2329,0.2138,0.2147,0.2282,0.2751,0.2717,0.2759,0.2392,0.24,0.2405,0.2781,0,0.1555,0.159,0.1599,0.1632,0.1648,0.1657,0.1706,0.1747,0.1801,0.1925,0.1967,0.2083,0.1999,0.2072,0.2172,0.232,0.2444,0.2229,0.2645,0.2657,0.2616,0.2807,0.2745,0.3071,0.2822,0.2829,0.2834,0,0.1585,0.16,0.1628,0.1673,0.1688,0.1714,0.1803,0.1855,0.2001,0.2063,0.2181,0.2259,0.2416,0.2346,0.2656,0.2545,0.2652,0.2736,0.2754,0.2759,0.2702,0.2945,0.3157,0.3051,0.2899,0.2894,0.2889,0,0.1587,0.1622,0.164,0.1649,0.1708,0.1737,0.1778,0.1896,0.1998,0.219,0.2327,0.2503,0.2673,0.283,0.2952,0.2868,0.3316,0.3228,0.3293,0.3291,0.3337,0.3325,0.3498,0.3472,0.3471,0.347,0.3469,0,0.1601,0.1621,0.1648,0.1662,0.1743,0.1765,0.19,0.1974,0.2156,0.2339,0.243,0.2637,0.2819,0.3056,0.3112,0.3361,0.3465,0.3372,0.3421,0.3329,0.3313,0.3297,0.3209,0.3484,0.3481,0.3478,0.3476,0,0.1646,0.1625,0.1689,0.1741,0.1751,0.1835,0.1966,0.2114,0.2239,0.2503,0.2585,0.2854,0.3155,0.33,0.361,0.3611,0.3713,0.3835,0.3687,0.3709,0.3608,0.3521,0.3629,0.3519,0.4014,0.4016,0.4017,0,0.1688,0.1716,0.178,0.1831,0.1862,0.1956,0.2064,0.2162,0.2328,0.2626,0.28,0.3124,0.3331,0.375,0.3865,0.4043,0.3838,0.4056,0.3843,0.3663,0.3606,0.3367,0.3245,0.3915,0.3916,0.3916,0.3917,0,0.1829,0.1851,0.1914,0.1975,0.2063,0.2161,0.2291,0.2391,0.2564,0.2749,0.3005,0.3159,0.3577,0.3763,0.3998,0.4064,0.3857,0.4068,0.3975,0.3639,0.3313,0.3207,0.3566,0.3921,0.3921,0.3921,0.392,0.392,0.1987,0.2042,0.2081,0.215,0.223,0.2285,0.2325,0.2474,0.262,0.2806,0.3052,0.3238,0.36,0.3917,0.3963,0.4025,0.39,0.3935,0.3884,0.3685,0.3453,0.3787,0.4109,0.411,0.411,0.4111,0.4111,0,0.2108,0.2117,0.2232,0.2245,0.231,0.2317,0.243,0.2438,0.2513,0.2768,0.2918,0.3283,0.3501,0.3722,0.3953,0.3872,0.3639,0.3774,0.3447,0.3363,0.3808,0.367,0.3799,0.3799,0.38,0.38,0.38,0.38,0.2161,0.2221,0.2224,0.2261,0.2275,0.2252,0.2256,0.228,0.2388,0.2553,0.2749,0.297,0.3393,0.3731,0.3765,0.3691,0.3378,0.3277,0.3178,0.3508,0.3516,0.3524,0.3375,0.3441,0.344,0.2615,0.2609,0.2604]},{"header":{"parameterUnit":"m.s-1","parameterCategory":2,"la1":30.2991,"la2":30.254,"lo1":-89.0895,"lo2":-89.0444,"dy":0.0017,"dx":0.0017,"nx":28,"ny":28,"refTime":"2024-04-24T09:00:00:Z","depth":"0","parameterNumber":3,"parameterNumberName":"V-component_of_CURRENTS"},"data":[0,0,0,0,0,0,0,0,0,0,0,0,0,0,0,0,0,0,0,0,0,0,0,0,0,0,0,0,0,0,0,0,0,0,0,0,0,0,0,0,0,0,0,0,0,0,0,0,0,0,0,0,0,0,0,0,0,0,0.0113,0.0113,0,0.0107,0.0107,0.0106,0.0061,0.006,0.0059,0.0058,0.0003,0.0003,0.0002,0,0,0,0,0,0,0,0,0,0,0,0,0,0.005,0.0051,0.0113,0.0113,0.0114,0.0107,0.0107,0.0106,0.0061,0.006,0.0059,0.0058,0.0003,0.0003,0.0002,0,0,0,0,0,0,0,0,0,0,0,0,0,0.0061,0.0052,0.0113,0.0092,0.0091,0.0107,0.0107,0.0106,0.0061,0.006,0.0059,0.0058,0.0004,0.0003,0.0002,0.0021,0,0,-0.0001,-0.0002,0,0,0,0,0,0,0,0,0.0061,0.0063,0.0095,0.0094,0.0092,0.0086,0.0064,0.0076,0.0062,0.0069,0.0058,0.0057,0.0029,0.0026,0.0024,0.0018,0.0016,-0.0002,-0.0002,-0.0003,-0.0003,0,0,0,0,0,0,0,0.006,0.0063,0.0108,0.0096,0.0094,0.0071,0.0071,0.0066,0.0053,0.0068,0.0066,0.007,0.0027,0.0025,0.0022,0.0015,-0.0002,-0.0002,-0.0003,-0.0003,-0.0037,-0.0038,0,0,0,0,0,0,0.007,0.0063,0.0108,0.0108,0.0076,0.0074,0.0074,0.0087,0.0054,0.0049,0.0072,0.0068,0.0028,0.0024,0.002,-0.0021,-0.0003,-0.0004,-0.0004,-0.0037,-0.0037,-0.0038,0,0,0,0,0,0,0.0069,0.0075,0.0108,0.0087,0.009,0.0077,0.0091,0.0087,0.0076,0.0058,0.0051,0.0063,0.0026,0.0022,-0.0005,-0.0021,-0.0004,-0.0005,-0.0037,-0.0037,-0.0037,-0.0063,0,0,0,0,0,0,0.0068,0.0075,0.0071,0.0088,0.0091,0.0108,0.0093,0.0088,0.0083,0.0078,0.0049,0.0043,0.0025,-0.0004,-0.0007,-0.0022,-0.0006,-0.0036,-0.0037,-0.0037,-0.0062,-0.0065,-0.0067,0,0,0,0,0,0.0065,0.0068,0.0072,0.0076,0.0093,0.0109,0.0107,0.0092,0.0084,0.0077,0.005,0.0043,-0.0009,-0.0005,-0.0008,-0.0024,-0.0036,-0.0037,-0.0037,-0.0061,-0.0064,-0.0067,0,0,0,0,0,0,0.0039,0.0065,0.0068,0.0079,0.009,0.0101,0.0091,0.0093,0.007,0.0055,0.0039,0.0031,0.0004,-0.0001,0.0004,-0.0034,-0.0023,-0.0024,-0.004,-0.0043,-0.0045,-0.0011,-0.0007,0,0,0,0,0,0.0036,0.0044,0.0068,0.0076,0.008,0.0088,0.0087,0.0083,0.0075,0.0063,0.0055,0.0032,0.0004,-0.0014,-0.0028,-0.0048,-0.0,-0.0059,-0.0061,-0.0063,-0.0037,0.0042,0.0051,-0.004,-0.004,-0.004,0,0,0.0031,0.0045,0.005,0.0071,0.0074,0.007,0.0082,0.0082,0.0065,0.0061,0.0035,0.0029,-0.0001,-0.0031,-0.0043,-0.0042,-0.0021,-0.0064,-0.0066,-0.0038,0.0043,0.0052,0.006,-0.004,-0.004,-0.004,0,0,0.0025,0.0036,0.0037,0.0048,0.0056,0.0052,0.0054,0.007,0.0056,0.004,0.0026,0.0016,-0.0015,-0.0036,-0.0057,-0.0074,-0.0029,-0.0082,-0.0075,0.0001,0.001,0.0018,0.0059,0.0072,-0.009,-0.009,-0.009,0,0.0013,0.002,0.0038,0.0042,0.0041,0.0044,0.0038,0.0024,0.0029,0.0048,0.0022,0.0038,-0.0021,-0.0023,-0.0065,-0.008,-0.0025,-0.0068,0.0001,0.001,0.002,0.006,0.0075,-0.0091,-0.0091,-0.0091,-0.0091,0,0.0013,0.0009,0.0011,0.0009,0.001,0.0007,0.0001,0.0008,-0.0003,0.0014,0.004,0.0003,0.0039,-0.0015,-0.0073,-0.0034,-0.0014,-0.0005,0.0012,0.0028,0.0068,0.0084,-0.0093,-0.0093,-0.0092,-0.0092,0,0,0.0016,0.0007,0.0008,0.0016,-0.0008,0.0015,-0.0021,-0.0008,0.007,0.0028,0.0139,0.0009,0.0073,0.0055,0.0029,0.0034,0.0074,0.0027,0.0032,0.0076,0.0243,0.0209,0.0222,0.0117,0.0121,0.0123,0.0234,0,0.0004,0.0004,-0.0008,-0.0008,-0.0005,-0.0005,0.0008,0.0028,0.0068,0.0186,0.0146,0.024,0.0076,0.0153,0.0114,0.0136,0.0122,0.0044,0.0216,0.0221,0.0196,0.0242,0.0179,0.0271,0.0249,0.0252,0.0254,0,0.0007,0.0009,0.0007,0.004,0.005,0.006,0.0157,0.0184,0.0302,0.0359,0.0429,0.0473,0.0472,0.0372,0.036,0.0335,0.027,0.0243,0.0249,0.0248,0.0217,0.0258,0.03,0.0045,0.0278,0.0276,0.0275,0,0.0039,0.0025,0.003,0.0036,0.0073,0.0105,0.0142,0.0256,0.039,0.0545,0.0713,0.0706,0.0829,0.0719,0.0588,0.052,0.0613,0.0532,0.0427,0.0424,0.042,0.0411,0.0249,0.0526,0.0526,0.0526,0.0525,0,0.0049,0.0073,0.0065,0.0093,0.0206,0.0191,0.0386,0.0451,0.0651,0.0896,0.0857,0.108,0.0936,0.0962,0.0741,0.065,0.0736,0.0456,0.0468,0.0402,0.039,0.0208,0.0088,0.053,0.0529,0.0528,0.0527,0,0.0164,0.0101,0.0188,0.0223,0.0242,0.0378,0.0575,0.0783,0.0889,0.1232,0.1313,0.1443,0.1468,0.1273,0.1179,0.0931,0.0662,0.0721,0.0627,0.0623,0.0242,0.0125,0.0082,-0.0012,0.064,0.064,0.064,0,0.0244,0.0285,0.0367,0.0469,0.051,0.0669,0.0841,0.0936,0.117,0.1468,0.1682,0.1805,0.1918,0.1726,0.1327,0.099,0.0739,0.0717,0.0531,0.0234,0.0114,0.0035,-0.0048,0.0504,0.0503,0.0502,0.0502,0,0.0508,0.0541,0.0646,0.08,0.096,0.1153,0.1355,0.1532,0.1712,0.1925,0.2216,0.2311,0.2146,0.1834,0.1377,0.1091,0.0534,0.0689,0.0434,0.0042,-0.0097,-0.0185,0.0388,0.0494,0.0495,0.0495,0.0496,0.0496,0.0808,0.0949,0.1057,0.1216,0.1392,0.1597,0.176,0.1964,0.2243,0.2511,0.2576,0.2673,0.2207,0.1578,0.121,0.0454,0.0493,0.0175,0.0075,0.0036,-0.0118,0.0414,0.0496,0.0496,0.0497,0.0498,0.0498,0,0.1133,0.1233,0.1447,0.161,0.1814,0.1813,0.2096,0.2242,0.25,0.2707,0.2855,0.2607,0.2,0.136,0.0386,-0.0105,-0.0289,-0.0363,-0.0528,-0.0571,-0.0053,-0.0132,-0.0245,-0.0245,-0.0245,-0.0245,-0.0245,-0.0244,0.133,0.1548,0.1592,0.1921,0.2032,0.227,0.2401,0.2598,0.2736,0.2887,0.2862,0.2832,0.2289,0.0686,-0.0445,-0.07,-0.1013,-0.1067,-0.1177,-0.0916,-0.0876,-0.0838,-0.0945,-0.1227,-0.1228,-0.1687,-0.1693,-0.1696]}],[{"header":{"parameterUnit":"m.s-1","parameterCategory":2,"la1":30.2991,"la2":30.254,"lo1":-89.0895,"lo2":-89.0444,"dy":0.0017,"dx":0.0017,"nx":28,"ny":28,"refTime":"2024-04-24T09:00:00:Z","depth":"2","parameterNumber":2,"parameterNumberName":"U-component_of_CURRENTS"},"data":[0,0,0,0,0,0,0,0,0,0,0,0,0,0,0,0,0,0,0,0,0,0,0,0,0,0,0,0,0,0,0,0,0,0,0,0,0,0,0,0,0,0,0,0,0,0,0,0,0,0,0,0,0,0,0,0,0,0,0.1579,0.1579,0,0.1618,0.1618,0.1619,0.16,0.1599,0.1598,0.1597,0.1611,0.1612,0.1613,0,0,0,0,0,0,0,0,0,0,0,0,0,0.1503,0.1504,0.1578,0.1579,0.158,0.1618,0.1618,0.1619,0.16,0.1599,0.1598,0.1597,0.1611,0.1612,0.1613,0,0,0,0,0,0,0,0,0,0,0,0,0,0.1536,0.1504,0.1578,0.1577,0.1578,0.1618,0.1618,0.1619,0.16,0.1599,0.1598,0.1597,0.161,0.1612,0.1613,0.1646,0,0,0.1618,0.1619,0,0,0,0,0,0,0,0,0.1534,0.1538,0.1577,0.1577,0.1578,0.1605,0.1597,0.1628,0.16,0.1589,0.1597,0.1596,0.1609,0.1611,0.1617,0.1647,0.1647,0.1618,0.1619,0.162,0.162,0,0,0,0,0,0,0,0.1532,0.1537,0.1591,0.1578,0.1579,0.1581,0.1584,0.1603,0.1602,0.159,0.1589,0.1598,0.1609,0.1616,0.1617,0.1647,0.1618,0.162,0.1621,0.1621,0.1717,0.1718,0,0,0,0,0,0,0.1533,0.1535,0.159,0.1593,0.1556,0.1583,0.1586,0.1595,0.1603,0.1604,0.1599,0.1597,0.1614,0.1616,0.1618,0.1666,0.162,0.1622,0.1622,0.1715,0.1717,0.1719,0,0,0,0,0,0,0.1531,0.1538,0.1589,0.1567,0.1573,0.1586,0.1596,0.1597,0.1607,0.1611,0.161,0.1608,0.1613,0.1616,0.1636,0.1665,0.1622,0.1624,0.1713,0.1716,0.1718,0.1755,0,0,0,0,0,0,0.1529,0.1537,0.1545,0.1567,0.1575,0.1619,0.1598,0.1599,0.1615,0.1613,0.1619,0.1619,0.1612,0.1633,0.1637,0.1667,0.1625,0.1711,0.1714,0.1717,0.1752,0.1759,0.1764,0,0,0,0,0,0.1526,0.1542,0.1545,0.1552,0.1585,0.1621,0.1625,0.1627,0.1617,0.163,0.1627,0.1619,0.1655,0.1636,0.164,0.1671,0.171,0.1714,0.1717,0.1749,0.1757,0.1764,0,0,0,0,0,0,0.1511,0.1543,0.1546,0.157,0.1597,0.1618,0.1633,0.1636,0.1646,0.1642,0.1635,0.1636,0.1667,0.1667,0.1646,0.1709,0.1684,0.1688,0.1707,0.1715,0.1721,0.1711,0.1626,0,0,0,0,0,0.1514,0.1534,0.1565,0.1585,0.1601,0.1619,0.1633,0.164,0.1653,0.1656,0.1656,0.1665,0.1688,0.1696,0.1712,0.1745,0.1783,0.177,0.1777,0.1782,0.1779,0.1873,0.1887,0.173,0.173,0.173,0,0,0.1514,0.1534,0.1545,0.1583,0.1602,0.1635,0.1624,0.1654,0.1671,0.1658,0.1674,0.1687,0.1702,0.1736,0.1751,0.1737,0.1852,0.1786,0.179,0.1784,0.1878,0.1893,0.1907,0.1733,0.1732,0.1732,0,0,0.1527,0.1544,0.1567,0.1593,0.1631,0.165,0.1662,0.1688,0.1689,0.1718,0.1713,0.1739,0.1767,0.1781,0.1794,0.1847,0.1882,0.186,0.1882,0.1975,0.1988,0.2001,0.209,0.211,0.1862,0.1862,0.1862,0,0.1525,0.1557,0.158,0.1611,0.1629,0.1659,0.1686,0.1706,0.173,0.1738,0.1728,0.1786,0.179,0.1841,0.1852,0.186,0.1921,0.1851,0.1983,0.1996,0.2008,0.2096,0.2118,0.1864,0.1864,0.1864,0.1864,0,0.156,0.1584,0.1603,0.1649,0.1673,0.1705,0.1735,0.1756,0.1765,0.1786,0.183,0.1843,0.1878,0.1891,0.1883,0.197,0.1991,0.1982,0.1963,0.2026,0.2115,0.2137,0.1868,0.1867,0.1866,0.1866,0,0,0.1563,0.1614,0.1621,0.1639,0.1692,0.1716,0.175,0.1793,0.1823,0.1851,0.1893,0.1925,0.194,0.1955,0.1963,0.2027,0.2162,0.2039,0.2043,0.2125,0.2385,0.23,0.2316,0.2189,0.2193,0.2196,0.242,0,0.1584,0.1628,0.1652,0.1698,0.1724,0.1752,0.1785,0.1825,0.1857,0.191,0.1941,0.2009,0.1966,0.2012,0.2056,0.2154,0.2219,0.2102,0.2312,0.2318,0.2233,0.2337,0.215,0.2326,0.2442,0.2445,0.2448,0,0.1615,0.1637,0.1671,0.1714,0.1729,0.1763,0.1815,0.185,0.1928,0.1961,0.2019,0.2071,0.2174,0.2131,0.2309,0.2247,0.2308,0.2366,0.2377,0.2293,0.2273,0.2278,0.2361,0.2485,0.2482,0.2479,0.2477,0,0.1601,0.1653,0.1671,0.1688,0.1746,0.1762,0.18,0.1864,0.1922,0.2024,0.2117,0.2197,0.2313,0.2386,0.2488,0.2437,0.2685,0.2637,0.261,0.2606,0.2482,0.2459,0.2751,0.2751,0.275,0.275,0.2749,0,0.1617,0.1638,0.1668,0.1683,0.1727,0.1757,0.1826,0.1871,0.1977,0.2089,0.2157,0.2272,0.2395,0.2537,0.2562,0.2669,0.2759,0.2638,0.2665,0.2489,0.2466,0.2613,0.2594,0.2758,0.2756,0.2755,0.2753,0,0.1617,0.1631,0.1663,0.1706,0.1724,0.1758,0.1867,0.1936,0.2036,0.2192,0.2263,0.2425,0.2592,0.2683,0.2849,0.2811,0.2893,0.2893,0.2673,0.2666,0.2732,0.2712,0.2907,0.2906,0.2905,0.2905,0.2904,0,0.1628,0.1636,0.1679,0.1717,0.1744,0.1805,0.1868,0.1955,0.2046,0.2275,0.2366,0.258,0.2675,0.2864,0.2857,0.2914,0.2923,0.2769,0.2598,0.2745,0.2752,0.2734,0.2716,0.2477,0.2473,0.247,0.2468,0,0.1651,0.1657,0.1683,0.1743,0.18,0.1871,0.1963,0.2029,0.2166,0.2319,0.2489,0.2583,0.2735,0.2693,0.2757,0.2739,0.2734,0.27,0.2981,0.2431,0.2348,0.2351,0.2347,0.2438,0.2441,0.2443,0.2445,0.2446,0.167,0.1685,0.1709,0.1762,0.1836,0.1892,0.1917,0.2036,0.2148,0.227,0.2418,0.2472,0.2531,0.2481,0.2451,0.2435,0.2582,0.2482,0.249,0.2502,0.2376,0.2292,0.235,0.2353,0.2355,0.2356,0.2358,0,0.1652,0.1676,0.1738,0.1763,0.1809,0.1872,0.1956,0.1952,0.2031,0.2154,0.2229,0.2082,0.208,0.2132,0.2075,0.2098,0.2049,0.2014,0.1941,0.1974,0.2002,0.1846,0.1683,0.1681,0.1678,0.1676,0,0,0.1646,0.1645,0.1652,0.1686,0.1745,0.1758,0.1777,0.1797,0.1853,0.1819,0.1827,0.1914,0.2079,0.1828,0.1831,0.1759,0.1838,0.1693,0.2246,0.2195,0.2219,0.23,0.2101,0,0,0,0,0]},{"header":{"parameterUnit":"m.s-1","parameterCategory":2,"la1":30.2991,"la2":30.254,"lo1":-89.0895,"lo2":-89.0444,"dy":0.0017,"dx":0.0017,"nx":28,"ny":28,"refTime":"2024-04-24T09:00:00:Z","depth":"2","parameterNumber":3,"parameterNumberName":"V-component_of_CURRENTS"},"data":[0,0,0,0,0,0,0,0,0,0,0,0,0,0,0,0,0,0,0,0,0,0,0,0,0,0,0,0,0,0,0,0,0,0,0,0,0,0,0,0,0,0,0,0,0,0,0,0,0,0,0,0,0,0,0,0,0,0,-0.0557,-0.0559,0,-0.0643,-0.0643,-0.0644,-0.0649,-0.0649,-0.0648,-0.0648,-0.0651,-0.0652,-0.0652,0,0,0,0,0,0,0,0,0,0,0,0,0,-0.0399,-0.0402,-0.0557,-0.0559,-0.056,-0.0643,-0.0643,-0.0644,-0.0649,-0.0649,-0.0648,-0.0648,-0.0651,-0.0651,-0.0652,0,0,0,0,0,0,0,0,0,0,0,0,0,-0.0468,-0.0402,-0.0557,-0.0578,-0.0582,-0.0643,-0.0643,-0.0644,-0.0649,-0.0648,-0.0648,-0.0648,-0.0651,-0.0651,-0.0652,-0.0664,0,0,-0.0654,-0.0654,0,0,0,0,0,0,0,0,-0.0464,-0.0472,-0.0574,-0.0577,-0.0581,-0.0641,-0.0589,-0.0649,-0.0649,-0.0615,-0.0648,-0.0647,-0.0645,-0.0646,-0.0654,-0.0664,-0.0664,-0.0654,-0.0654,-0.0654,-0.0654,0,0,0,0,0,0,0,-0.0459,-0.0469,-0.0583,-0.0576,-0.058,-0.0585,-0.0594,-0.06,-0.0624,-0.0618,-0.0621,-0.0643,-0.0646,-0.0653,-0.0654,-0.0664,-0.0654,-0.0654,-0.0654,-0.0655,-0.0655,-0.0655,0,0,0,0,0,0,-0.0464,-0.0465,-0.0581,-0.0587,-0.0529,-0.0589,-0.0598,-0.0616,-0.0626,-0.063,-0.0643,-0.0643,-0.0653,-0.0653,-0.0654,-0.0624,-0.0654,-0.0655,-0.0655,-0.0655,-0.0655,-0.0655,0,0,0,0,0,0,-0.0461,-0.0474,-0.0577,-0.0533,-0.0548,-0.0593,-0.0613,-0.0618,-0.0624,-0.0647,-0.0648,-0.0644,-0.0652,-0.0653,-0.0642,-0.0626,-0.0655,-0.0655,-0.0656,-0.0655,-0.0655,-0.0593,0,0,0,0,0,0,-0.0455,-0.0472,-0.0475,-0.0534,-0.0551,-0.0604,-0.0614,-0.0621,-0.0642,-0.0642,-0.0649,-0.0649,-0.0652,-0.0641,-0.0643,-0.0627,-0.0656,-0.0656,-0.0656,-0.0655,-0.0595,-0.059,-0.0586,0,0,0,0,0,-0.0449,-0.0452,-0.0475,-0.0489,-0.0558,-0.0605,-0.0612,-0.0638,-0.0643,-0.0641,-0.0637,-0.0648,-0.0639,-0.0641,-0.0643,-0.0627,-0.0656,-0.0656,-0.0655,-0.0597,-0.0591,-0.0586,0,0,0,0,0,0,-0.0381,-0.0456,-0.0481,-0.0506,-0.0553,-0.0608,-0.0607,-0.0637,-0.0636,-0.0625,-0.064,-0.064,-0.0631,-0.0639,-0.0642,-0.0628,-0.0652,-0.0651,-0.0607,-0.0602,-0.0597,-0.0597,-0.0656,0,0,0,0,0,-0.0373,-0.0394,-0.0469,-0.0487,-0.0504,-0.0556,-0.0576,-0.0601,-0.062,-0.062,-0.063,-0.0632,-0.0632,-0.0623,-0.0632,-0.0617,-0.0636,-0.0611,-0.0607,-0.0602,-0.0605,-0.0617,-0.0614,-0.0652,-0.0652,-0.0652,0,0,-0.0356,-0.0398,-0.0411,-0.0474,-0.0502,-0.053,-0.0563,-0.0588,-0.0595,-0.0619,-0.0607,-0.0622,-0.0629,-0.0613,-0.0609,-0.0612,-0.0601,-0.0602,-0.0598,-0.0602,-0.0616,-0.0612,-0.0609,-0.0652,-0.0652,-0.0652,0,0,-0.0336,-0.0361,-0.0377,-0.041,-0.0466,-0.0497,-0.0507,-0.0561,-0.0557,-0.0565,-0.058,-0.058,-0.0585,-0.0582,-0.0581,-0.0558,-0.0585,-0.0566,-0.0527,-0.0538,-0.0535,-0.0532,-0.0544,-0.0543,-0.0551,-0.0551,-0.0551,0,-0.0311,-0.0345,-0.0387,-0.0409,-0.0427,-0.0482,-0.0496,-0.0506,-0.0549,-0.0537,-0.0548,-0.0571,-0.0568,-0.0557,-0.0538,-0.0546,-0.0562,-0.0542,-0.0531,-0.0529,-0.0527,-0.0541,-0.054,-0.0548,-0.0548,-0.0548,-0.0549,0,-0.0311,-0.0335,-0.0336,-0.0384,-0.0405,-0.042,-0.0455,-0.0456,-0.0465,-0.0485,-0.0484,-0.05,-0.0512,-0.0511,-0.0507,-0.0498,-0.0516,-0.0532,-0.0541,-0.0519,-0.0535,-0.0536,-0.0543,-0.0544,-0.0545,-0.0546,0,0,-0.0267,-0.0326,-0.0327,-0.0335,-0.0387,-0.04,-0.0393,-0.0404,-0.0391,-0.0423,-0.0417,-0.0416,-0.0443,-0.0446,-0.0464,-0.0464,-0.0449,-0.0481,-0.0483,-0.0487,-0.0478,-0.051,-0.0514,-0.0463,-0.0463,-0.0463,-0.049,0,-0.0253,-0.0276,-0.0313,-0.0319,-0.0328,-0.0355,-0.0339,-0.0348,-0.036,-0.0363,-0.0382,-0.038,-0.0413,-0.041,-0.0424,-0.0426,-0.045,-0.0441,-0.0505,-0.0507,-0.0533,-0.0516,-0.0471,-0.0493,-0.0491,-0.0491,-0.0491,0,-0.0245,-0.0258,-0.0263,-0.0271,-0.0272,-0.0277,-0.0257,-0.0257,-0.0266,-0.0274,-0.0307,-0.033,-0.032,-0.037,-0.0393,-0.0384,-0.0435,-0.0461,-0.0462,-0.0517,-0.0541,-0.0518,-0.0495,-0.0493,-0.0493,-0.0493,-0.0493,0,-0.019,-0.0218,-0.021,-0.0218,-0.024,-0.0218,-0.0215,-0.022,-0.0198,-0.0221,-0.0195,-0.0253,-0.0223,-0.0307,-0.035,-0.0359,-0.0404,-0.042,-0.0522,-0.0524,-0.0512,-0.0515,-0.0491,-0.0491,-0.049,-0.049,-0.049,0,-0.0164,-0.016,-0.0177,-0.0174,-0.0138,-0.016,-0.0125,-0.0134,-0.0135,-0.0101,-0.0139,-0.0143,-0.02,-0.0233,-0.0333,-0.0415,-0.0391,-0.0517,-0.0533,-0.049,-0.049,-0.0515,-0.0517,-0.0491,-0.0491,-0.0491,-0.0491,0,-0.0141,-0.0147,-0.0146,-0.014,-0.0124,-0.0101,-0.0071,-0.0049,-0.0026,0.001,0.0027,-0.0004,-0.0065,-0.0163,-0.0275,-0.0341,-0.0455,-0.0519,-0.0465,-0.0476,-0.0575,-0.0574,-0.0603,-0.0604,-0.0605,-0.0606,-0.0607,0,-0.0151,-0.0147,-0.0125,-0.0107,-0.0108,-0.0068,-0.0035,-0.0015,0.0007,0.0074,0.0095,0.0073,0.0042,-0.0124,-0.0308,-0.0484,-0.0541,-0.0537,-0.0558,-0.0574,-0.0587,-0.0584,-0.0581,-0.051,-0.051,-0.051,-0.051,0,-0.0191,-0.0173,-0.0168,-0.012,-0.0081,-0.0036,0.0016,0.0057,0.0106,0.0188,0.0226,0.0229,0.0071,-0.009,-0.0312,-0.0448,-0.0495,-0.0543,-0.0557,-0.0498,-0.0491,-0.0503,-0.0502,-0.0509,-0.0509,-0.051,-0.051,-0.051,-0.0233,-0.0232,-0.0208,-0.0156,-0.0097,-0.0023,0.0041,0.0121,0.0206,0.0371,0.0314,0.0401,0.0207,-0.0061,-0.0309,-0.0547,-0.0561,-0.0583,-0.0581,-0.0579,-0.0573,-0.057,-0.0601,-0.0602,-0.0602,-0.0603,-0.0603,0,-0.0292,-0.0273,-0.0246,-0.0176,-0.0096,-0.005,0.0066,0.0177,0.0325,0.0468,0.0566,0.0449,0.0277,0.001,-0.0326,-0.0517,-0.0517,-0.0588,-0.0532,-0.0531,-0.0531,-0.0521,-0.0536,-0.0537,-0.0537,-0.0537,0,0,-0.0319,-0.0317,-0.0288,-0.0192,-0.0116,0.0021,0.0111,0.0305,0.0454,0.063,0.0721,0.0764,0.0428,0.0209,-0.0118,-0.032,-0.0367,-0.0358,-0.0387,-0.0282,-0.0278,-0.0508,-0.049,0,0,0,0,0]}],[{"header":{"parameterUnit":"m.s-1","parameterCategory":2,"la1":30.2991,"la2":30.254,"lo1":-89.0895,"lo2":-89.0444,"dy":0.0017,"dx":0.0017,"nx":28,"ny":28,"refTime":"2024-04-24T09:00:00:Z","depth":"4","parameterNumber":2,"parameterNumberName":"U-component_of_CURRENTS"},"data":[0,0,0,0,0,0,0,0,0,0,0,0,0,0,0,0,0,0,0,0,0,0,0,0,0,0,0,0,0,0,0,0,0,0,0,0,0,0,0,0,0,0,0,0,0,0,0,0,0,0,0,0,0,0,0,0,0,0,0.0883,0.0883,0,0.0932,0.0932,0.0932,0.0959,0.0959,0.096,0.096,0.0997,0.0998,0.0999,0,0,0,0,0,0,0,0,0,0,0,0,0,0.0808,0.0809,0.0883,0.0883,0.0884,0.0932,0.0932,0.0933,0.0959,0.096,0.096,0.096,0.0997,0.0998,0.0999,0,0,0,0,0,0,0,0,0,0,0,0,0,0.0844,0.0809,0.0882,0.0906,0.0908,0.0932,0.0932,0.0933,0.0959,0.096,0.096,0.0961,0.0997,0.0998,0.0999,0.0995,0,0,0.1002,0.1002,0,0,0,0,0,0,0,0,0.0842,0.0846,0.0901,0.0904,0.0907,0.0943,0.092,0.0954,0.0959,0.0937,0.096,0.0961,0.0979,0.0982,0.0986,0.0996,0.0998,0.1002,0.1003,0.1003,0.1003,0,0,0,0,0,0,0,0.0839,0.0845,0.0899,0.0902,0.0906,0.0913,0.0918,0.0926,0.0952,0.0939,0.0941,0.0951,0.0981,0.0985,0.0987,0.0999,0.1002,0.1003,0.1003,0.1004,0.1099,0.1101,0,0,0,0,0,0,0.0839,0.0842,0.0897,0.0901,0.0879,0.0914,0.092,0.0928,0.0952,0.0957,0.0951,0.0953,0.0983,0.0986,0.0988,0.1061,0.1003,0.1004,0.1004,0.1097,0.1099,0.1101,0,0,0,0,0,0,0.0837,0.0844,0.0896,0.0875,0.0883,0.0915,0.0924,0.0929,0.0955,0.0962,0.0967,0.0975,0.0983,0.0987,0.103,0.106,0.1004,0.1005,0.1095,0.1098,0.11,0.1157,0,0,0,0,0,0,0.0835,0.0843,0.0859,0.0875,0.0884,0.0919,0.0924,0.093,0.096,0.0964,0.0984,0.0986,0.0984,0.1029,0.1031,0.106,0.1006,0.1092,0.1096,0.1099,0.1153,0.1162,0.1169,0,0,0,0,0,0.0832,0.0847,0.0859,0.0867,0.0902,0.092,0.0925,0.0947,0.0961,0.0972,0.1003,0.0987,0.1053,0.1032,0.1034,0.1063,0.109,0.1095,0.1099,0.1149,0.116,0.1169,0,0,0,0,0,0,0.0823,0.0852,0.0866,0.089,0.091,0.0926,0.0946,0.096,0.0991,0.1007,0.101,0.1016,0.1062,0.1059,0.1035,0.1104,0.1069,0.1074,0.1107,0.1117,0.1125,0.111,0.1007,0,0,0,0,0,0.0829,0.085,0.0873,0.0895,0.0909,0.0932,0.0948,0.0964,0.099,0.1006,0.1026,0.1053,0.1077,0.1096,0.1111,0.1149,0.1146,0.1171,0.1179,0.1186,0.1178,0.1227,0.1239,0.1115,0.1115,0.1115,0,0,0.0829,0.0852,0.0863,0.0896,0.0916,0.0939,0.0943,0.0975,0.1004,0.1004,0.1061,0.1079,0.1093,0.1138,0.1159,0.1144,0.1219,0.1192,0.1197,0.1185,0.1233,0.1245,0.1255,0.1118,0.1118,0.1117,0,0,0.083,0.0864,0.0876,0.09,0.094,0.096,0.0974,0.1009,0.1037,0.109,0.11,0.1143,0.1182,0.1199,0.1211,0.1274,0.1257,0.1283,0.1316,0.1365,0.1375,0.1384,0.1388,0.1397,0.1292,0.1292,0.1292,0,0.0832,0.0857,0.0883,0.0904,0.0932,0.0972,0.0993,0.1027,0.1076,0.1102,0.1119,0.1195,0.121,0.1256,0.1283,0.1291,0.1302,0.1276,0.1375,0.1384,0.1392,0.1394,0.1403,0.1295,0.1295,0.1295,0.1294,0,0.0835,0.0868,0.0882,0.0927,0.0954,0.0988,0.1033,0.1075,0.1125,0.1156,0.1226,0.1262,0.1312,0.1323,0.1324,0.1387,0.137,0.1376,0.1346,0.1407,0.1406,0.1414,0.13,0.1299,0.1298,0.1297,0,0,0.0809,0.0872,0.0882,0.0907,0.0977,0.0995,0.1056,0.1111,0.1166,0.1221,0.1292,0.1336,0.1372,0.1387,0.1405,0.1437,0.1506,0.1436,0.1437,0.143,0.159,0.1523,0.1524,0.1538,0.154,0.1542,0.1563,0,0.0811,0.085,0.0888,0.0938,0.0962,0.1024,0.108,0.1137,0.121,0.1294,0.1337,0.142,0.1395,0.1453,0.148,0.1506,0.1532,0.1497,0.1538,0.1538,0.1465,0.1534,0.1548,0.1568,0.157,0.1572,0.1573,0,0.0799,0.0834,0.0876,0.0952,0.0971,0.1019,0.1121,0.1181,0.1292,0.1354,0.1431,0.1488,0.1553,0.1547,0.1595,0.158,0.159,0.1592,0.1594,0.1512,0.1486,0.1497,0.1587,0.1586,0.1585,0.1584,0.1583,0,0.0747,0.0824,0.0862,0.0889,0.098,0.1027,0.1096,0.1202,0.1273,0.142,0.1491,0.157,0.1639,0.1666,0.1677,0.1661,0.1717,0.1703,0.1636,0.1629,0.1654,0.1645,0.1743,0.1743,0.1743,0.1743,0.1743,0,0.0724,0.0753,0.0855,0.0869,0.0953,0.1021,0.1128,0.1209,0.1346,0.1425,0.1536,0.1606,0.1679,0.1721,0.1715,0.1694,0.1756,0.1643,0.1642,0.1677,0.167,0.1659,0.1649,0.1743,0.1743,0.1743,0.1743,0,0.0654,0.0714,0.0759,0.087,0.0926,0.0987,0.1153,0.1219,0.1356,0.1471,0.153,0.1655,0.1711,0.1746,0.1793,0.1735,0.1735,0.1711,0.1729,0.1729,0.1596,0.1589,0.1638,0.1636,0.1634,0.1633,0.1632,0,0.062,0.0636,0.0757,0.0802,0.0866,0.0983,0.1063,0.1221,0.1283,0.1471,0.1499,0.1632,0.1693,0.1682,0.1736,0.1735,0.1713,0.1693,0.1649,0.1597,0.1592,0.1587,0.1582,0.1629,0.1629,0.1628,0.1628,0,0.0555,0.0601,0.0652,0.0748,0.0837,0.0928,0.1045,0.1088,0.1247,0.1383,0.146,0.1532,0.1589,0.1629,0.1651,0.1641,0.1701,0.1675,0.1677,0.1636,0.1587,0.1582,0.1579,0.1622,0.1623,0.1623,0.1624,0,0.0519,0.054,0.0606,0.0696,0.0785,0.0829,0.0915,0.0997,0.1094,0.1288,0.1309,0.1445,0.1562,0.1582,0.1597,0.1599,0.1572,0.1509,0.152,0.1527,0.1487,0.1407,0.1394,0,0,0,0,0,0.0478,0.0489,0.0546,0.0617,0.0693,0.0752,0.0873,0.0951,0.1103,0.1123,0.122,0.1281,0.1366,0.1439,0.1418,0.154,0.1561,0.151,0.1488,0.159,0.1597,0.1563,0,0,0,0,0,0,0.0444,0.0483,0.0511,0.0532,0.0565,0.0643,0.0715,0.0827,0.0844,0.1006,0.1052,0.12,0.1284,0.1354,0.1389,0.1411,0.1372,0.1606,0.1603,0.1587,0.1593,0.1598,0.1565,0,0,0,0,0]},{"header":{"parameterUnit":"m.s-1","parameterCategory":2,"la1":30.2991,"la2":30.254,"lo1":-89.0895,"lo2":-89.0444,"dy":0.0017,"dx":0.0017,"nx":28,"ny":28,"refTime":"2024-04-24T09:00:00:Z","depth":"4","parameterNumber":3,"parameterNumberName":"V-component_of_CURRENTS"},"data":[0,0,0,0,0,0,0,0,0,0,0,0,0,0,0,0,0,0,0,0,0,0,0,0,0,0,0,0,0,0,0,0,0,0,0,0,0,0,0,0,0,0,0,0,0,0,0,0,0,0,0,0,0,0,0,0,0,0,-0.0109,-0.0109,0,-0.0144,-0.0145,-0.0145,-0.0169,-0.0169,-0.0169,-0.0169,-0.023,-0.0231,-0.0232,0,0,0,0,0,0,0,0,0,0,0,0,0,-0.009,-0.009,-0.0109,-0.0109,-0.011,-0.0144,-0.0145,-0.0145,-0.0169,-0.0169,-0.0169,-0.0169,-0.0229,-0.0231,-0.0233,0,0,0,0,0,0,0,0,0,0,0,0,0,-0.0109,-0.009,-0.0109,-0.0126,-0.0128,-0.0144,-0.0145,-0.0145,-0.0169,-0.0169,-0.0169,-0.017,-0.0229,-0.0231,-0.0233,-0.0239,0,0,-0.0239,-0.024,0,0,0,0,0,0,0,0,-0.0107,-0.0109,-0.0123,-0.0125,-0.0127,-0.0153,-0.016,-0.0178,-0.0168,-0.0152,-0.0169,-0.017,-0.0207,-0.021,-0.0215,-0.0242,-0.0244,-0.0239,-0.0241,-0.0242,-0.0242,0,0,0,0,0,0,0,-0.0106,-0.0108,-0.0122,-0.0124,-0.0126,-0.0142,-0.0145,-0.0164,-0.0177,-0.0154,-0.0156,-0.0161,-0.0208,-0.0213,-0.0217,-0.0245,-0.0239,-0.0241,-0.0242,-0.0243,-0.0287,-0.0287,0,0,0,0,0,0,-0.0101,-0.0106,-0.0121,-0.0123,-0.0119,-0.0142,-0.0145,-0.0144,-0.0176,-0.0182,-0.016,-0.0162,-0.0209,-0.0214,-0.0219,-0.0205,-0.0241,-0.0243,-0.0245,-0.0287,-0.0287,-0.0287,0,0,0,0,0,0,-0.0101,-0.0102,-0.0119,-0.0117,-0.012,-0.0142,-0.014,-0.0144,-0.0152,-0.0181,-0.0187,-0.0164,-0.021,-0.0216,-0.0239,-0.0209,-0.0244,-0.0246,-0.0287,-0.0287,-0.0287,-0.0193,0,0,0,0,0,0,-0.01,-0.0101,-0.0098,-0.0116,-0.012,-0.0118,-0.014,-0.0145,-0.0154,-0.0157,-0.0186,-0.0192,-0.021,-0.0236,-0.0241,-0.0212,-0.0248,-0.0287,-0.0287,-0.0287,-0.0196,-0.0189,-0.0184,0,0,0,0,0,-0.0099,-0.0086,-0.0098,-0.01,-0.0115,-0.0117,-0.012,-0.0137,-0.0154,-0.0147,-0.0178,-0.0191,-0.0238,-0.0238,-0.0244,-0.0215,-0.0287,-0.0287,-0.0287,-0.0199,-0.0191,-0.0184,0,0,0,0,0,0,-0.0077,-0.0088,-0.0101,-0.0093,-0.0102,-0.0121,-0.0119,-0.0136,-0.0154,-0.0162,-0.0194,-0.0201,-0.021,-0.0235,-0.0233,-0.0231,-0.0263,-0.0264,-0.0194,-0.0187,-0.0181,-0.0151,-0.025,0,0,0,0,0,-0.0071,-0.0066,-0.0081,-0.0076,-0.0078,-0.0101,-0.0106,-0.0119,-0.0139,-0.0147,-0.0171,-0.0199,-0.0213,-0.0219,-0.0242,-0.024,-0.0282,-0.0228,-0.0222,-0.0216,-0.0198,-0.0265,-0.0263,-0.0286,-0.0286,-0.0286,0,0,-0.0061,-0.0069,-0.0065,-0.0071,-0.0082,-0.0062,-0.0104,-0.0107,-0.0088,-0.0152,-0.0142,-0.0183,-0.0213,-0.021,-0.0214,-0.0224,-0.023,-0.0216,-0.021,-0.0196,-0.0264,-0.0262,-0.026,-0.0286,-0.0286,-0.0286,0,0,-0.0025,-0.0045,-0.002,-0.002,-0.0031,-0.0042,-0.0041,-0.0061,-0.0066,-0.0071,-0.0109,-0.0132,-0.0159,-0.0166,-0.0174,-0.0151,-0.0203,-0.0163,-0.0095,-0.016,-0.0158,-0.0157,-0.0196,-0.02,-0.0151,-0.0151,-0.0151,0,-0.0013,0.0016,-0.0014,0.0015,0.0022,-0.0026,0.0008,0.0002,-0.0023,-0.0029,-0.0056,-0.0105,-0.0129,-0.0117,-0.0102,-0.0131,-0.018,-0.0114,-0.015,-0.015,-0.0151,-0.0192,-0.0197,-0.0146,-0.0147,-0.0147,-0.0148,0,0.0051,0.0073,0.0086,0.0109,0.0112,0.0127,0.0116,0.0111,0.0083,0.0067,0.0048,0.0002,-0.0031,-0.0033,-0.0053,-0.0058,-0.0095,-0.0141,-0.0162,-0.0142,-0.0187,-0.0194,-0.014,-0.0141,-0.0143,-0.0144,0,0,0.0078,0.0125,0.0129,0.0149,0.0161,0.0162,0.0197,0.0203,0.0197,0.0173,0.0162,0.0155,0.0096,0.0082,0.0041,0.0009,-0.0026,-0.0055,-0.0061,-0.0081,-0.0162,-0.0156,-0.0164,-0.0092,-0.0093,-0.0093,-0.0188,0,0.0136,0.0207,0.0217,0.0273,0.0303,0.0282,0.0309,0.0301,0.0269,0.0239,0.0201,0.0161,0.015,0.0109,0.0085,-0.002,-0.0042,0.0005,-0.0189,-0.0194,-0.0181,-0.017,-0.0096,-0.0193,-0.0195,-0.0196,-0.0197,0,0.0195,0.0231,0.0305,0.0338,0.0347,0.0372,0.0367,0.0382,0.0345,0.0312,0.0277,0.0212,0.0179,0.0135,0.0026,0.0047,-0.0035,-0.0103,-0.011,-0.0138,-0.02,-0.0224,-0.021,-0.0209,-0.0208,-0.0207,-0.0206,0,0.0206,0.0284,0.0337,0.0354,0.0391,0.0409,0.0416,0.0398,0.039,0.0335,0.0296,0.0241,0.0176,0.0086,-0.0028,-0.0025,-0.0173,-0.0202,-0.0257,-0.0258,-0.0276,-0.0277,-0.0276,-0.0276,-0.0276,-0.0275,-0.0275,0,0.025,0.0282,0.0343,0.0363,0.039,0.042,0.0421,0.0412,0.0394,0.0377,0.0318,0.028,0.0152,0.0055,-0.0035,-0.0159,-0.0184,-0.0232,-0.0281,-0.0234,-0.0229,-0.0281,-0.028,-0.0279,-0.0278,-0.0277,-0.0277,0,0.0228,0.0285,0.0326,0.0382,0.039,0.0397,0.0412,0.0411,0.04,0.0371,0.0351,0.0277,0.0162,0.0047,-0.0124,-0.0178,-0.0299,-0.0337,-0.0258,-0.0304,-0.0334,-0.0327,-0.0403,-0.0404,-0.0404,-0.0405,-0.0405,0,0.0214,0.0244,0.0301,0.0311,0.0329,0.0349,0.036,0.0388,0.0398,0.0378,0.0368,0.0261,0.0201,-0.0009,-0.0137,-0.0307,-0.0325,-0.0386,-0.035,-0.0307,-0.0347,-0.034,-0.0333,-0.0406,-0.0406,-0.0406,-0.0406,0,0.0165,0.019,0.0213,0.0257,0.028,0.0311,0.0347,0.0361,0.0406,0.0386,0.0372,0.0278,0.0151,0.0003,-0.014,-0.0258,-0.0347,-0.0392,-0.0391,-0.0357,-0.0311,-0.0349,-0.0341,-0.0408,-0.0407,-0.0407,-0.0407,0,0.0095,0.0103,0.016,0.0196,0.0235,0.0306,0.0315,0.0363,0.0389,0.0406,0.0392,0.0281,0.0206,0.0026,-0.0101,-0.0221,-0.0242,-0.0271,-0.0277,-0.0276,-0.0207,-0.0127,-0.02,0,0,0,0,0,0.0044,0.0082,0.0103,0.0182,0.0231,0.0278,0.0333,0.0358,0.0408,0.0405,0.0416,0.0313,0.0142,0.0059,-0.0058,-0.0122,-0.0278,-0.0264,-0.0318,-0.0417,-0.0415,-0.0353,0,0,0,0,0,0,0.0013,0.0042,0.01,0.0191,0.024,0.0321,0.0367,0.039,0.0403,0.0416,0.0325,0.0286,0.011,0.0211,-0.0059,-0.0097,-0.0146,-0.0348,-0.0351,-0.0418,-0.0416,-0.0414,-0.0351,0,0,0,0,0]}]]